[[{"header":{"parameterUnit":"m.s-1","parameterCategory":1,"la1":30.2991,"la2":30.254,"lo1":-89.0895,"lo2":-89.0444,"dy":0.0017,"dx":0.0017,"nx":28,"ny":28,"refTime":"2024-08-08T03:00:00:Z","depth":0,"parameterNumber":2,"parameterNumberName":"U-component_of_WINDS"},"data":[0,0,0,0,0,0,0,0,0,0,0,0,0,0,0,0,0,0,0,0,0,0,0,0,0,0,0,0,0,0,0,0,0,0,0,0,0,0,0,0,0,0,0,0,0,0,0,0,0,0,0,0,0,0,0,0,0,0,0.7946,0.7945,0,0.7882,0.7881,0.788,0.7879,0.788,0.788,0.7881,0.7806,0.7803,0.78,0,0,0,0,0,0,0,0,0,0,0,0,0,0.806,0.8058,0.7946,0.7945,0.7944,0.7882,0.7881,0.788,0.7879,0.788,0.7881,0.7882,0.7806,0.7803,0.78,0,0,0,0,0,0,0,0,0,0,0,0,0,0.8004,0.8057,0.7946,0.7936,0.7935,0.7882,0.7881,0.788,0.7878,0.788,0.7881,0.7882,0.7808,0.7803,0.7799,0.7749,0,0,0.7787,0.7785,0,0,0,0,0,0,0,0,0.8007,0.8,0.7938,0.7937,0.7935,0.789,0.7893,0.7835,0.7878,0.7899,0.7881,0.7883,0.7832,0.7826,0.7811,0.7745,0.7742,0.7786,0.7784,0.7782,0.7781,0,0,0,0,0,0,0,0.8011,0.8003,0.792,0.7938,0.7935,0.7933,0.7926,0.7882,0.7859,0.7898,0.7898,0.7891,0.7831,0.7815,0.7809,0.7741,0.7786,0.7783,0.778,0.7778,0.7633,0.7632,0,0,0,0,0,0,0.8018,0.8006,0.7922,0.7918,0.7975,0.793,0.7922,0.7903,0.786,0.7855,0.789,0.7891,0.7821,0.7814,0.7806,0.7745,0.7782,0.7778,0.7776,0.7634,0.7633,0.7631,0,0,0,0,0,0,0.8021,0.8011,0.7925,0.7962,0.7951,0.7927,0.7904,0.7901,0.7885,0.7854,0.7849,0.7878,0.7822,0.7812,0.7764,0.7743,0.7776,0.7772,0.7636,0.7634,0.7632,0.7622,0,0,0,0,0,0,0.8024,0.8012,0.7994,0.7962,0.7949,0.7886,0.7903,0.7899,0.7879,0.788,0.7841,0.7836,0.7822,0.7771,0.776,0.7737,0.7769,0.7637,0.7635,0.7632,0.7624,0.762,0.7617,0,0,0,0,0,0.8028,0.7991,0.7993,0.7983,0.7926,0.7885,0.7877,0.7865,0.7877,0.7858,0.7838,0.7837,0.7747,0.7766,0.7754,0.773,0.7639,0.7636,0.7633,0.7626,0.7621,0.7617,0,0,0,0,0,0,0.8016,0.7986,0.7988,0.794,0.7916,0.7885,0.786,0.786,0.7828,0.783,0.7814,0.7805,0.7758,0.7739,0.776,0.768,0.7694,0.7689,0.7693,0.7688,0.7684,0.7689,0.7766,0,0,0,0,0,0.8009,0.798,0.7954,0.7914,0.7902,0.7884,0.7865,0.7858,0.7831,0.7819,0.7796,0.7767,0.7732,0.7709,0.7676,0.7623,0.7614,0.76,0.7597,0.7594,0.7588,0.756,0.7554,0.7621,0.7621,0.7621,0,0,0.7991,0.7972,0.7953,0.7912,0.7892,0.786,0.7874,0.784,0.7816,0.7812,0.7767,0.775,0.7716,0.7666,0.7643,0.7649,0.7568,0.759,0.7588,0.7584,0.7556,0.755,0.7544,0.7619,0.7619,0.762,0,0,0.7943,0.7926,0.7892,0.7873,0.7845,0.7833,0.7825,0.7795,0.7785,0.774,0.7738,0.7708,0.7649,0.7626,0.7606,0.7555,0.7552,0.7544,0.7522,0.7495,0.749,0.7485,0.7467,0.746,0.7539,0.7539,0.7539,0,0.7924,0.788,0.7873,0.784,0.7822,0.7823,0.7787,0.7768,0.7728,0.7715,0.7724,0.7652,0.7628,0.7574,0.7562,0.7546,0.7536,0.7547,0.7492,0.7487,0.7482,0.7465,0.7458,0.7538,0.7538,0.7538,0.7538,0,0.7858,0.7827,0.7802,0.7769,0.7748,0.7713,0.77,0.7679,0.7676,0.7663,0.7618,0.7592,0.7554,0.7541,0.7534,0.7486,0.7491,0.7496,0.751,0.7475,0.7458,0.7451,0.7537,0.7537,0.7538,0.7538,0,0,0.7796,0.7765,0.7755,0.7741,0.7712,0.7687,0.7653,0.762,0.7602,0.7576,0.7546,0.7498,0.7505,0.7482,0.7474,0.7451,0.7413,0.7459,0.7458,0.7451,0.7357,0.7353,0.7345,0.7413,0.7411,0.741,0.736,0,0.7745,0.7688,0.7683,0.7631,0.7602,0.7605,0.7575,0.7553,0.7541,0.7514,0.7499,0.7466,0.7476,0.7463,0.744,0.7422,0.7393,0.7426,0.7382,0.7381,0.739,0.7336,0.7331,0.7285,0.7354,0.7352,0.7352,0,0.7677,0.7654,0.76,0.7578,0.7566,0.7539,0.751,0.7485,0.746,0.7453,0.7431,0.7427,0.7391,0.7409,0.7358,0.738,0.7362,0.7351,0.7349,0.7343,0.7363,0.7328,0.727,0.7262,0.7341,0.7342,0.7343,0,0.7638,0.7593,0.7555,0.7543,0.7516,0.7498,0.7485,0.7463,0.7444,0.7418,0.7406,0.7374,0.7356,0.7332,0.7319,0.7333,0.7269,0.7286,0.7261,0.7261,0.7245,0.7246,0.7182,0.7236,0.7236,0.7236,0.7236,0,0.758,0.7547,0.7538,0.7515,0.7478,0.7472,0.7435,0.7423,0.7403,0.7376,0.7376,0.735,0.7336,0.7308,0.7298,0.7258,0.7249,0.7241,0.7239,0.7241,0.7242,0.7227,0.723,0.7234,0.7234,0.7235,0.7235,0,0.7529,0.7522,0.7481,0.7461,0.7455,0.7429,0.7411,0.7387,0.7378,0.7344,0.7336,0.7319,0.7286,0.7273,0.7231,0.7225,0.7178,0.7178,0.7188,0.7186,0.7162,0.7165,0.7086,0.7075,0.7137,0.7136,0.7136,0,0.7492,0.7467,0.7446,0.743,0.7418,0.7392,0.7375,0.7369,0.735,0.7323,0.7303,0.7271,0.7246,0.7193,0.7176,0.7145,0.7143,0.7118,0.7138,0.7142,0.7142,0.7144,0.7141,0.7113,0.7113,0.7112,0.7112,0,0.7427,0.7426,0.7402,0.7379,0.7359,0.7339,0.7319,0.7306,0.7297,0.7276,0.7245,0.7226,0.7187,0.7155,0.7124,0.7108,0.7108,0.7107,0.7099,0.71,0.7106,0.7102,0.7177,0.7108,0.7108,0.7108,0.7109,0.7109,0.7381,0.736,0.7343,0.7317,0.7304,0.7286,0.7265,0.7254,0.723,0.72,0.7197,0.7164,0.7142,0.7101,0.7085,0.7058,0.7063,0.7052,0.7049,0.7047,0.7045,0.7113,0.7052,0.7052,0.7052,0.7052,0.7052,0,0.7315,0.7306,0.7283,0.7258,0.7239,0.7246,0.7225,0.7207,0.7179,0.716,0.7137,0.7102,0.7073,0.7055,0.7025,0.7007,0.7006,0.6999,0.6999,0.6996,0.7041,0.7051,0.7,0.7,0.7,0.7,0.7,0.7,0.7279,0.7244,0.7242,0.7201,0.7191,0.7161,0.7149,0.7133,0.7118,0.7081,0.7058,0.7049,0.703,0.7,0.6973,0.6969,0.6957,0.6949,0.6945,0.6987,0.6992,0.6997,0.7006,0.6947,0.6947,0.6902,0.6901,0.6901]},{"header":{"parameterUnit":"m.s-1","parameterCategory":1,"la1":30.2991,"la2":30.254,"lo1":-89.0895,"lo2":-89.0444,"dy":0.0017,"dx":0.0017,"nx":28,"ny":28,"refTime":"2024-08-08T03:00:00:Z","depth":0,"parameterNumber":3,"parameterNumberName":"V-component_of_WINDS"},"data":[0,0,0,0,0,0,0,0,0,0,0,0,0,0,0,0,0,0,0,0,0,0,0,0,0,0,0,0,0,0,0,0,0,0,0,0,0,0,0,0,0,0,0,0,0,0,0,0,0,0,0,0,0,0,0,0,0,0,-2.5897,-2.5897,0,-2.594,-2.5941,-2.5941,-2.5869,-2.5867,-2.5864,-2.5862,-2.5908,-2.5912,-2.5915,0,0,0,0,0,0,0,0,0,0,0,0,0,-2.5755,-2.5758,-2.5897,-2.5898,-2.5898,-2.594,-2.5941,-2.5941,-2.587,-2.5867,-2.5864,-2.5861,-2.5907,-2.5911,-2.5916,0,0,0,0,0,0,0,0,0,0,0,0,0,-2.5809,-2.5759,-2.5897,-2.5867,-2.5865,-2.594,-2.5941,-2.5941,-2.587,-2.5867,-2.5863,-2.586,-2.5906,-2.5911,-2.5916,-2.6022,0,0,-2.5932,-2.5935,0,0,0,0,0,0,0,0,-2.5806,-2.5815,-2.5871,-2.587,-2.5867,-2.5895,-2.5907,-2.5969,-2.5871,-2.5869,-2.5862,-2.5858,-2.5907,-2.5912,-2.5928,-2.6025,-2.6027,-2.5933,-2.5936,-2.5938,-2.594,0,0,0,0,0,0,0,-2.5803,-2.5812,-2.5914,-2.5872,-2.587,-2.5853,-2.5856,-2.5919,-2.5908,-2.5868,-2.5863,-2.5869,-2.5905,-2.5924,-2.5929,-2.6027,-2.5933,-2.5937,-2.5941,-2.5943,-2.6213,-2.6217,0,0,0,0,0,0,-2.5802,-2.581,-2.5913,-2.5915,-2.5827,-2.5858,-2.5862,-2.589,-2.5907,-2.5906,-2.5872,-2.5866,-2.5916,-2.5923,-2.593,-2.6056,-2.5938,-2.5943,-2.5946,-2.6209,-2.6214,-2.6219,0,0,0,0,0,0,-2.58,-2.5812,-2.5911,-2.5861,-2.5872,-2.5865,-2.5897,-2.5893,-2.5911,-2.591,-2.5908,-2.5893,-2.5914,-2.5923,-2.6,-2.6056,-2.5946,-2.595,-2.6205,-2.6211,-2.6217,-2.6308,0,0,0,0,0,0,-2.5796,-2.5812,-2.5851,-2.5863,-2.5875,-2.5979,-2.59,-2.5897,-2.592,-2.5912,-2.5929,-2.5928,-2.5911,-2.5993,-2.6005,-2.6062,-2.5954,-2.62,-2.6207,-2.6215,-2.63,-2.6316,-2.633,0,0,0,0,0,-2.5791,-2.5876,-2.5854,-2.5866,-2.5925,-2.5983,-2.599,-2.5969,-2.5925,-2.5965,-2.5965,-2.5927,-2.6048,-2.6001,-2.6015,-2.6074,-2.6196,-2.6205,-2.6214,-2.6293,-2.6313,-2.633,0,0,0,0,0,0,-2.5871,-2.5876,-2.5852,-2.5943,-2.5963,-2.5971,-2.602,-2.5991,-2.6024,-2.6015,-2.5989,-2.5993,-2.6076,-2.6083,-2.603,-2.6178,-2.6115,-2.6127,-2.617,-2.6189,-2.6204,-2.6201,-2.5959,0,0,0,0,0,-2.59,-2.5946,-2.5948,-2.6028,-2.6039,-2.6028,-2.6053,-2.6035,-2.6055,-2.6063,-2.6068,-2.609,-2.6133,-2.6161,-2.6201,-2.6301,-2.6304,-2.6348,-2.6363,-2.6376,-2.6387,-2.644,-2.646,-2.6248,-2.6248,-2.6248,0,0,-2.5959,-2.5967,-2.5998,-2.6044,-2.6058,-2.6107,-2.6036,-2.6091,-2.6127,-2.6072,-2.6144,-2.6149,-2.6172,-2.6261,-2.63,-2.6269,-2.6446,-2.6388,-2.6398,-2.6401,-2.6452,-2.6472,-2.649,-2.6255,-2.6253,-2.6252,0,0,-2.6091,-2.6102,-2.6169,-2.6184,-2.6205,-2.6198,-2.6214,-2.6227,-2.6228,-2.63,-2.626,-2.6304,-2.6378,-2.6395,-2.6414,-2.6554,-2.6521,-2.6568,-2.6648,-2.6701,-2.6717,-2.6732,-2.6782,-2.68,-2.6579,-2.6579,-2.6579,0,-2.6161,-2.6233,-2.6208,-2.6266,-2.6288,-2.624,-2.6308,-2.6325,-2.6358,-2.6375,-2.6339,-2.6431,-2.6443,-2.6536,-2.657,-2.6587,-2.6605,-2.6566,-2.6717,-2.6731,-2.6745,-2.6792,-2.6811,-2.6585,-2.6584,-2.6583,-2.6583,0,-2.6318,-2.6369,-2.6421,-2.6454,-2.6482,-2.6545,-2.6531,-2.6562,-2.6543,-2.6539,-2.6614,-2.6627,-2.6668,-2.6689,-2.667,-2.6779,-2.6759,-2.6721,-2.6657,-2.6771,-2.6815,-2.6833,-2.6593,-2.6591,-2.6589,-2.6588,0,0,-2.6501,-2.652,-2.654,-2.6554,-2.6575,-2.6613,-2.6675,-2.6715,-2.6742,-2.6768,-2.6819,-2.6883,-2.6848,-2.6869,-2.6852,-2.6899,-2.7009,-2.6855,-2.6855,-2.6883,-2.7131,-2.7159,-2.7181,-2.6988,-2.6991,-2.6994,-2.7129,0,-2.6632,-2.6737,-2.6718,-2.682,-2.6867,-2.6823,-2.6876,-2.6895,-2.6894,-2.6934,-2.6933,-2.6979,-2.6929,-2.6942,-2.6986,-2.6987,-2.7059,-2.6977,-2.7036,-2.7038,-2.7031,-2.7204,-2.7234,-2.736,-2.7146,-2.7149,-2.7151,0,-2.6799,-2.683,-2.6937,-2.695,-2.6969,-2.7018,-2.7053,-2.7091,-2.7113,-2.7109,-2.7133,-2.7108,-2.717,-2.7106,-2.7192,-2.7136,-2.716,-2.7164,-2.7168,-2.7173,-2.7101,-2.7212,-2.74,-2.7419,-2.7178,-2.7176,-2.7174,0,-2.6921,-2.699,-2.7063,-2.7077,-2.7094,-2.7129,-2.7139,-2.7156,-2.7181,-2.7213,-2.7229,-2.7268,-2.7289,-2.732,-2.7306,-2.726,-2.7394,-2.7329,-2.7393,-2.7394,-2.7423,-2.7421,-2.7617,-2.7439,-2.7439,-2.7438,-2.7438,0,-2.707,-2.7137,-2.7118,-2.7163,-2.7237,-2.7215,-2.7289,-2.7293,-2.7309,-2.7355,-2.732,-2.7363,-2.7343,-2.7385,-2.7375,-2.7448,-2.7458,-2.7457,-2.7453,-2.746,-2.746,-2.7474,-2.7465,-2.7443,-2.7442,-2.7441,-2.744,0,-2.7218,-2.7208,-2.7285,-2.7295,-2.73,-2.7354,-2.7363,-2.7406,-2.7403,-2.7461,-2.7473,-2.7468,-2.7517,-2.7506,-2.7559,-2.7553,-2.7644,-2.763,-2.7637,-2.7633,-2.7698,-2.7692,-2.7909,-2.7936,-2.7741,-2.7743,-2.7745,0,-2.7313,-2.7364,-2.738,-2.7407,-2.7419,-2.7464,-2.749,-2.747,-2.7499,-2.7527,-2.7566,-2.7612,-2.7646,-2.7726,-2.7728,-2.7769,-2.7755,-2.7828,-2.7761,-2.7766,-2.7756,-2.7753,-2.7758,-2.7842,-2.7844,-2.7846,-2.7847,0,-2.7482,-2.7475,-2.7513,-2.755,-2.7582,-2.761,-2.7635,-2.766,-2.7642,-2.7676,-2.7725,-2.7752,-2.7807,-2.7852,-2.789,-2.7901,-2.7872,-2.7869,-2.7885,-2.7892,-2.7894,-2.7894,-2.7673,-2.7863,-2.7862,-2.7861,-2.786,-2.7859,-2.7607,-2.765,-2.7668,-2.7712,-2.7728,-2.7753,-2.7793,-2.7795,-2.7835,-2.7877,-2.7864,-2.792,-2.794,-2.7988,-2.8003,-2.8047,-2.802,-2.8045,-2.8051,-2.8057,-2.8065,-2.7888,-2.8054,-2.8054,-2.8053,-2.8053,-2.8053,0,-2.7774,-2.7784,-2.7824,-2.786,-2.7895,-2.7864,-2.789,-2.7922,-2.7971,-2.7993,-2.8028,-2.8085,-2.8129,-2.8134,-2.8177,-2.8211,-2.8199,-2.8223,-2.822,-2.8223,-2.8087,-2.8068,-2.8232,-2.8232,-2.8232,-2.8232,-2.8232,-2.8232,-2.7865,-2.7936,-2.7932,-2.8011,-2.8021,-2.8074,-2.8092,-2.8115,-2.8132,-2.8196,-2.8233,-2.8236,-2.8252,-2.8295,-2.8334,-2.8335,-2.8352,-2.8381,-2.8377,-2.825,-2.8232,-2.8215,-2.8197,-2.8385,-2.8385,-2.8509,-2.851,-2.8511]}]]